Regional Weather Roundup
Issued by NWS Sioux Falls, SD

Home | Current Version | Previous Version | Graphics & Text | Print | Product List | Glossary On
Versions: 1 2 3 4 5 6 7 8 9 10 11 12 13 14 15 16 17 18 19 20 21 22 23 24 25 26 27 28 29 30 31 32 33 34 35 36 37 38 39 40 41 42 43 44 45 46 47 48 49 50
000
ASUS43 KFSD 040410
RWRFSD

WEATHER ROUNDUP FOR SE SOUTH DAKOTA/SW MINNESOTA/NW IOWA
NATIONAL WEATHER SERVICE SIOUX FALLS SD
1100 PM CDT FRI JUL 03 2015

NOTE: "FAIR" INDICATES FEW OR NO CLOUDS BELOW 12,000 FEET WITH NO
SIGNIFICANT WEATHER AND OR OBSTRUCTIONS TO VISIBILITY.


SDZ038>040-050-052>070-040500-
SOUTHEAST SOUTH DAKOTA

CITY           SKY/WX    TMP DP  RH WIND       PRES   REMARKS
BROOKINGS      CLEAR     70  63  78 SW5       29.97R
CHAMBERLAIN    CLEAR     67  65  93 SE6       29.95R
HURON          CLEAR     72  66  81 S8        29.92R
MADISON        FAIR      66  66 100 SW3       29.97R
MITCHELL       CLEAR     70  65  84 S6        29.94R
SIOUX FALLS    MOCLDY    70  63  78 SW3       29.96R
WINNER         FAIR      71  62  73 SE9       29.95R
YANKTON        CLEAR     70  63  78 S3        29.95R
$$

MNZ071-072-080-081-089-090-097-098-040500-
SOUTHWEST MINNESOTA

CITY           SKY/WX    TMP DP  RH WIND       PRES   REMARKS
FAIRMONT       CLEAR     66  55  68 CALM      29.94S
JACKSON        CLEAR     68  57  68 SW6       29.97R
LUVERNE        CLEAR     68  63  83 CALM      29.97R
MARSHALL       MOCLDY    73  63  68 SW10      29.92R
MONTEVIDEO     CLEAR     70  64  83 CALM      29.93R
PIPESTONE      CLEAR     66  63  88 SW3       29.97R
REDWOOD FALLS  CLEAR     71  62  73 S3        29.92R
TRACY          PTCLDY    71  66  84 SW6       29.95R
WINDOM         CLEAR     66  61  82 SW6       29.96R
WORTHINGTON    CLEAR     64  57  77 SW7       29.97R
$$

IAZ001>003-012>014-020>022-031-032-NEZ013-014-SDZ071-040500-
NORTHWEST IOWA

CITY           SKY/WX    TMP DP  RH WIND       PRES   REMARKS
CHEROKEE       CLEAR     61  60  97 CALM      29.98R
DENISON        CLOUDY    61  59  94 E5        29.98R
ESTHERVILLE    CLEAR     62  58  86 SW7       29.96R
LE MARS        CLEAR     63  61  94 CALM      29.98R
ORANGE CITY    CLEAR     64  57  77 CALM      29.98R
SHELDON        PTCLDY    63  63 100 S3        29.96S
SIOUX CITY     CLEAR     68  59  73 E7        29.97R
SPENCER        PTCLDY    63  57  81 SW7       29.97R
STORM LAKE     CLEAR     66  55  68 SW5       29.99S
$$

ABBREVIATIONS USED IN REMARKS
   TC - TEMPERATURE IN CELSIUS
  WCI - WIND CHILL INDEX
   HX - HEAT INDEX
  VSB - VISIBILITY



USA.gov is the U.S. government's official web portal to all federal, state and local government web resources and services.